Aswan, Egypt

8:58 AM EET on February 23, 2018 (GMT +0200)
Aswan

Weather History for HESN - June, 2013

Change the Weather History Date:

Sunday, June 9, 2013

  Actual Average Record
Temperature  
Mean Temperature 97 °F -  
Max Temperature 111 °F 103 °F 115 °F (2017)
Min Temperature 83 °F 80 °F 73 °F (2001)
Cooling Degree Days 32    
Growing Degree Days 47 (Base 50)    
Moisture  
Dew Point 38 °F    
Average Humidity 12    
Maximum Humidity 21    
Minimum Humidity 4    
Precipitation  
Precipitation 0.00 in 0.00 in - ()
Sea Level Pressure  
Sea Level Pressure 29.77 in    
Wind  
Wind Speed 7 mph ()    
Max Wind Speed 14 mph    
Max Gust Speed -    
Visibility 5.2 miles    
Events      
Averages and records for this station are not official NWS values.
T = Trace of Precipitation, MM = Missing Value Source: Averaged Metar Reports

Daily Weather History Graph

Daily Weather History Graph

Search for Another Location

Airport or City:

Trip Planner

Search our weather history database for the weather conditions in past years. The results will help you decide how hot, cold, wet, or windy it might be!

Date:

Astronomy

Jun. 09, 2013 Rise Set
Actual Time 5:00 AM EET 6:35 PM EET
Civil Twilight 4:35 AM EET 7:01 PM EET
Nautical Twilight 4:04 AM EET 7:31 PM EET
Astronomical Twilight 3:33 AM EET 8:03 PM EET
Moon 5:34 AM EET (6/9) 7:14 PM EET (6/9)
Length of Visible Light 14h 25m
Length of Day
13h 35m
New Moon, 1% of the Moon is Illuminated
Jun 9
New Moon
Jun 16
First Quarter
Jun 23
Full
Jun 30
Last Quarter
Jul 8
New

Hourly Weather History & Observations

Time (EET) Temp. Dew Point Humidity Pressure Visibility Wind Dir Wind Speed Gust Speed Precip Events Conditions
12:00 AM 93.2 °F 33.8 °F 12% 29.77 in - North 4.6 mph - N/A   Clear
1:00 AM 91.4 °F 33.8 °F 13% 29.77 in - NNW 3.5 mph - N/A   Clear
2:00 AM 88 °F 33 °F 7% 29.73 in 6 mi NW 10.4 mph - -  
2:00 AM 87.8 °F 32.0 °F 14% 29.77 in - NW 6.9 mph - N/A   Clear
3:00 AM 86.0 °F 32.0 °F 14% 29.80 in - North 6.9 mph - N/A   Clear
4:00 AM 86.0 °F 32.0 °F 14% 29.77 in - NNE 9.2 mph - N/A   Clear
5:00 AM 84.2 °F 33.8 °F 16% 29.77 in - NNE 4.6 mph - N/A   Clear
6:00 AM 84.2 °F 33.8 °F 16% 29.80 in - NNE 3.5 mph - N/A   Clear
7:00 AM 91.4 °F 37.4 °F 15% 29.80 in 5.0 mi ENE 3.5 mph - N/A   Unknown
8:00 AM 95 °F 37 °F 7% 29.79 in 5 mi North 5.8 mph - -   Haze
8:00 AM 95.0 °F 37.4 °F 13% 29.83 in 5.0 mi North 5.8 mph - N/A   Unknown
9:00 AM 98.6 °F 37.4 °F 12% 29.83 in 5.0 mi NE 8.1 mph - N/A   Unknown
10:00 AM 102.2 °F 39.2 °F 11% 29.83 in 5.0 mi NNE 9.2 mph - N/A   Unknown
11:00 AM 105.8 °F 41.0 °F 11% 29.83 in 5.0 mi NNE 8.1 mph - N/A   Unknown
12:00 PM 109.4 °F 41.0 °F 10% 29.80 in 5.0 mi NNE 10.4 mph - N/A   Unknown
1:00 PM 109.4 °F 41.0 °F 10% 29.77 in 5.0 mi NNW 6.9 mph - N/A   Unknown
2:00 PM 111 °F 40 °F 4% 29.70 in 5 mi NNE 10.4 mph - -   Haze
2:00 PM 111.2 °F 41.0 °F 9% 29.74 in 5.0 mi NNE 10.4 mph - N/A   Unknown
3:00 PM 111.2 °F 41.0 °F 9% 29.74 in - NNW 9.2 mph - N/A   Clear
4:00 PM 111.2 °F 39.2 °F 9% 29.71 in - North 10.4 mph - N/A   Clear
5:00 PM 109.4 °F 39.2 °F 9% 29.71 in - NNW 11.5 mph - N/A   Clear
6:00 PM 107.6 °F 37.4 °F 9% 29.71 in - NNW 12.7 mph - N/A   Clear
7:00 PM 104.0 °F 39.2 °F 11% 29.74 in - NNW 11.5 mph - N/A   Clear
8:00 PM 101 °F 41 °F 6% 29.71 in 6 mi North 11.5 mph - -  
8:00 PM 102.2 °F 41.0 °F 12% 29.77 in - North 11.5 mph - N/A   Clear
9:00 PM 96.8 °F 44.6 °F 17% 29.77 in - North 13.8 mph - N/A   Clear
10:00 PM 93.2 °F 46.4 °F 20% 29.80 in - North 10.4 mph - N/A   Clear
11:00 PM 91.4 °F 46.4 °F 21% 29.80 in - North 9.2 mph - N/A   Clear